OE5RBO Weather Reports


Display with metric or nautical units.
time (UTC)temp
F
wind
direction
speed
MPH
gust
MPH
rain 1hr
in
rain 24hr
in
rain mn
in
humidity
%
barometer
mb
20260903161505 78 288 1.0 8.0 0.00 0.00 0.00 55 1020.7
20260903160505 79 288 1.0 9.0 0.00 0.00 0.00 54 1020.8
20260903155504 79 288 2.0 9.0 0.00 0.00 0.00 55 1020.9
20260903154504 78 212 4.0 10.0 0.00 0.00 0.00 57 1020.9
20260903152504 79 288 2.0 8.0 0.00 0.00 0.00 56 1021.0
20260903151503 79 176 3.0 11.0 0.00 0.00 0.00 55 1021.1
20260903150503 80 203 4.0 10.0 0.00 0.00 0.00 55 1021.2
20260903144502 79 288 1.0 10.0 0.00 0.00 0.00 56 1021.1
20260903142501 79 212 3.0 12.0 0.00 0.00 0.00 54 1021.0
20260903141501 80 221 3.0 10.0 0.00 0.00 0.00 53 1021.3
20260903140500 81 288 2.0 8.0 0.00 0.00 0.00 53 1021.1
20260903135500 79 211 4.0 10.0 0.00 0.00 0.00 56 1021.6
20260903134500 80 217 2.0 8.0 0.00 0.00 0.00 55 1021.2
20260903132459 81 211 3.0 10.0 0.00 0.00 0.00 54 1021.3
20260903131458 80 221 1.0 10.0 0.00 0.00 0.00 54 1021.7
20260903130458 79 288 1.0 9.0 0.00 0.00 0.00 57 1021.6
20260903125458 78 288 0.0 4.0 0.00 0.00 0.00 58 1022.0
20260903124458 77 186 2.0 11.0 0.00 0.00 0.00 61 1021.9
20260903123457 77 212 2.0 7.0 0.00 0.00 0.00 59 1022.0
20260903122457 77 219 1.0 10.0 0.00 0.00 0.00 59 1022.1
20260903120456 77 200 3.0 9.0 0.00 0.00 0.00 59 1022.1
20260903114456 78 193 3.0 13.0 0.00 0.00 0.00 60 1022.1
20260903113455 77 207 5.0 14.0 0.00 0.00 0.00 59 1022.0
20260903112454 78 288 4.0 11.0 0.00 0.00 0.00 58 1022.2
20260903111454 77 288 0.0 5.0 0.00 0.00 0.00 62 1022.3
20260903110454 76 288 1.0 9.0 0.00 0.00 0.00 62 1022.2
20260903104453 75 193 4.0 17.0 0.00 0.00 0.00 61 1022.3
20260903103453 76 288 2.0 9.0 0.00 0.00 0.00 60 1022.3
20260903102453 75 198 3.0 12.0 0.00 0.00 0.00 66 1022.3
20260903101452 74 180 5.0 13.0 0.00 0.00 0.00 65 1022.7
20260903100917 75 288 3.0 9.0 0.00 0.00 0.00 65 1022.7
20260903100452 75 288 3.0 9.0 0.00 0.00 0.00 65 1022.7
20260903095451 74 207 5.0 11.0 0.00 0.00 0.00 67 1022.6
20260903093451 74 194 4.0 10.0 0.00 0.00 0.00 67 1022.9
20260903092450 74 167 7.0 14.0 0.00 0.00 0.00 66 1022.9
20260903091450 76 226 3.0 10.0 0.00 0.00 0.00 66 1022.9
20260903085449 73 165 1.0 4.0 0.00 0.00 0.00 69 1023.0
20260903084449 72 218 2.0 6.0 0.00 0.00 0.00 72 1023.0
20260903083448 72 218 2.0 5.0 0.00 0.00 0.00 71 1023.2
20260903082448 72 122 3.0 9.0 0.00 0.00 0.00 68 1023.0
20260903081448 73 231 1.0 7.0 0.00 0.00 0.00 69 1022.9
20260903080447 72 245 3.0 8.0 0.00 0.00 0.00 70 1023.1
20260903075447 72 208 3.0 6.0 0.00 0.00 0.00 71 1023.1
20260903074447 75 203 4.0 10.0 0.00 0.00 0.00 65 1023.0
20260903073446 76 138 1.0 3.0 0.00 0.00 0.00 66 1022.9
20260903072446 76 205 0.0 3.0 0.00 0.00 0.00 67 1023.0
20260903071445 74 0 0.0 0.0 0.00 0.00 0.00 70 1023.1
20260903070445 73 149 1.0 4.0 0.00 0.00 0.00 70 1023.0
20260903065445 72 142 1.0 4.0 0.00 0.00 0.00 70 1022.9
20260903064444 70 146 2.0 3.0 0.00 0.00 0.00 73 1022.9
20260903063444 69 131 1.0 3.0 0.00 0.00 0.00 75 1022.9
20260903062444 67 166 1.0 4.0 0.00 0.00 0.00 79 1022.9
20260903061443 66 142 2.0 3.0 0.00 0.00 0.00 81 1022.9
20260903060443 66 172 1.0 2.0 0.00 0.00 0.00 83 1022.8
20260903054442 64 134 1.0 3.0 0.00 0.00 0.00 86 1022.7
20260903052441 64 163 1.0 3.0 0.00 0.00 0.00 85 1022.6
20260903051441 64 142 0.0 2.0 0.00 0.00 0.00 85 1022.5
20260903050441 64 201 1.0 7.0 0.00 0.00 0.00 85 1022.4
20260903045440 64 170 1.0 3.0 0.00 0.00 0.00 84 1022.4
20260903044440 64 222 2.0 9.0 0.00 0.00 0.00 84 1022.3
20260903041439 64 0 0.0 0.0 0.00 0.00 0.00 86 1022.2
20260903035438 64 219 0.0 2.0 0.00 0.00 0.00 88 1022.1
20260903034438 64 136 1.0 3.0 0.00 0.00 0.00 85 1022.0
20260903032437 64 143 1.0 4.0 0.00 0.00 0.00 84 1022.1
20260903031437 64 62 1.0 2.0 0.00 0.00 0.00 85 1022.0
20260903030436 65 0 0.0 0.0 0.00 0.00 0.00 83 1022.0
20260903025436 65 143 1.0 4.0 0.00 0.00 0.00 83 1022.0
20260903024436 65 141 1.0 3.0 0.00 0.00 0.00 82 1022.0
20260903023435 65 153 2.0 4.0 0.00 0.00 0.00 83 1021.9
20260903022435 65 166 0.0 2.0 0.00 0.00 0.00 83 1021.9
20260903021435 65 138 0.0 2.0 0.00 0.00 0.00 84 1021.8
20260903020434 65 166 1.0 4.0 0.00 0.00 0.00 83 1021.8
20260903015434 65 159 1.0 4.0 0.00 0.00 0.00 84 1021.7
20260903014433 64 160 1.0 4.0 0.00 0.00 0.00 85 1021.7
20260903013433 63 48 1.0 2.0 0.00 0.00 0.00 90 1021.7
20260903012433 63 17 1.0 3.0 0.00 0.00 0.00 92 1021.7
20260903011432 64 198 1.0 4.0 0.00 0.00 0.00 89 1021.4
20260903010432 64 166 2.0 4.0 0.00 0.00 0.00 88 1021.2
20260903005431 65 0 0.0 0.0 0.00 0.00 0.00 87 1021.3
20260903003431 65 132 1.0 3.0 0.00 0.00 0.00 83 1021.2
20260903000432 62 44 0.0 1.0 0.00 0.00 0.00 92 1021.3
20260902235430 62 0 0.0 0.0 0.00 0.00 0.00 93 1021.2
20260902234429 62 0 0.0 0.0 0.00 0.00 0.00 92 1021.2
20260902233429 63 42 2.0 3.0 0.00 0.00 0.00 92 1021.2
20260902232428 63 41 0.0 2.0 0.00 0.00 0.00 90 1021.4
20260902231428 63 0 0.0 0.0 0.00 0.00 0.00 91 1021.6
20260902224427 63 10 0.0 2.0 0.00 0.00 0.00 89 1021.6
20260902223426 63 180 2.0 4.0 0.00 0.00 0.00 91 1021.6
20260902222426 62 0 0.0 0.0 0.00 0.00 0.00 93 1021.4
20260902221426 62 0 0.0 0.0 0.00 0.00 0.00 92 1021.2
20260902220425 62 0 0.0 0.0 0.00 0.00 0.00 92 1021.1
20260902215425 62 0 0.0 0.0 0.00 0.00 0.00 91 1021.1
20260902214425 63 0 0.0 0.0 0.00 0.00 0.00 91 1021.0
20260902213424 63 0 0.0 0.0 0.00 0.00 0.00 90 1021.0
20260902212424 63 0 0.0 0.0 0.00 0.00 0.00 91 1021.0
20260902211424 63 0 0.0 0.0 0.00 0.00 0.00 89 1020.9
20260902210423 64 0 0.0 0.0 0.00 0.00 0.00 88 1020.9
20260902205423 64 0 0.0 0.0 0.00 0.00 0.00 87 1020.9
20260902203422 65 0 0.0 0.0 0.00 0.00 0.00 87 1020.9
20260902202422 65 0 0.0 0.0 0.00 0.00 0.00 86 1020.8
20260902201421 65 84 0.0 1.0 0.00 0.00 0.00 85 1021.0
20260902200421 66 0 0.0 0.0 0.00 0.00 0.00 84 1021.0
20260902195421 66 342 0.0 2.0 0.00 0.00 0.00 84 1021.0
20260902193420 67 0 0.0 0.0 0.00 0.00 0.00 81 1020.9
20260902192420 68 0 0.0 0.0 0.00 0.00 0.00 79 1020.9
20260902191419 69 48 2.0 6.0 0.00 0.00 0.00 74 1020.8
20260902185419 70 38 3.0 7.0 0.00 0.00 0.00 74 1020.8
20260902184418 69 42 1.0 5.0 0.00 0.00 0.00 74 1020.7
20260902183418 70 218 0.0 0.0 0.00 0.00 0.00 74 1020.6
20260902182418 71 45 2.0 6.0 0.00 0.00 0.00 71 1020.3
20260902181417 71 42 5.0 9.0 0.00 0.00 0.00 70 1020.1
20260902180417 71 30 6.0 9.0 0.00 0.00 0.00 70 1019.7
20260902175416 71 32 6.0 9.0 0.00 0.00 0.00 70 1020.0
20260902174416 71 63 5.0 8.0 0.00 0.00 0.00 69 1019.9
20260902172415 72 44 4.0 5.0 0.00 0.00 0.00 67 1019.9
20260902171415 72 39 2.0 4.0 0.00 0.00 0.00 67 1019.9
20260902170415 73 38 3.0 4.0 0.00 0.00 0.00 65 1019.9
20260902165414 73 42 2.0 3.0 0.00 0.00 0.00 65 1020.0
20260902163413 76 34 1.0 3.0 0.00 0.00 0.00 62 1020.0
20260902162413 77 333 1.0 2.0 0.00 0.00 0.00 60 1019.9